Location: Embarras
(53.3000°N, 116.9000°W)
Time: 10:11:53
(UTC+00:00)

STRAND 1 - Visible Passes

Search period start: 08 December 2023 00:00
Search period end: 18 December 2023 00:00
Orbit: 765 x 779 km, 98.4° (Epoch: 07 December)

Date Brightness Start Highest point End Pass type
(mag) Time Alt. Az. Time Alt. Az. Time Alt. Az.
08 Dec ? 01:14:55 16° ESE 01:14:55 16° ESE 01:17:06 10° SE visible
08 Dec ? 02:55:16 43° SSW 02:55:16 43° SSW 02:58:39 10° SSW visible
08 Dec ? 10:57:16 10° ENE 10:58:21 11° NE 10:59:25 10° NNE visible
08 Dec ? 12:31:30 10° SE 12:36:19 45° ENE 12:40:02 16° N visible
08 Dec ? 14:11:00 10° SSW 14:15:36 34° W 14:20:14 10° NNW visible
09 Dec ? 02:20:09 41° SSE 02:20:09 41° SSE 02:23:47 10° S visible
09 Dec ? 04:00:30 18° WSW 04:00:30 18° WSW 04:02:06 10° WSW visible
09 Dec ? 11:57:43 10° ESE 12:01:54 26° ENE 12:04:48 16° NNE visible
09 Dec ? 13:35:40 10° S 13:40:43 62° WSW 13:45:09 14° NNW visible
10 Dec ? 01:45:02 27° ESE 01:45:02 27° ESE 01:48:18 10° SSE visible
10 Dec ? 03:25:23 31° SW 03:25:23 31° SW 03:28:12 10° SW visible
10 Dec ? 11:24:34 10° E 11:27:39 16° NE 11:29:35 13° NNE visible
10 Dec ? 13:00:56 10° SSE 13:06:00 74° ENE 13:09:56 17° N visible
10 Dec ? 14:41:58 10° SW 14:45:43 20° W 14:49:28 10° NW visible
11 Dec ? 01:09:54 15° ESE 01:09:54 15° ESE 01:11:54 10° SE visible
11 Dec ? 02:50:15 46° SSW 02:50:15 46° SSW 02:53:46 10° SSW visible
11 Dec ? 04:30:36 11° W 04:30:36 11° W 04:30:45 10° W visible
11 Dec ? 12:26:42 10° SE 12:31:27 41° ENE 12:34:43 19° N visible
11 Dec ? 14:05:59 10° SSW 14:10:40 36° W 14:15:03 12° NNW visible
12 Dec ? 02:15:08 40° SE 02:15:08 40° SE 02:18:49 10° S visible
12 Dec ? 03:55:28 20° WSW 03:55:28 20° WSW 03:57:21 10° WSW visible
12 Dec ? 11:52:59 10° ESE 11:57:03 25° ENE 11:59:30 17° NNE visible
12 Dec ? 13:30:45 10° S 13:35:49 67° WSW 13:39:51 16° NNW visible
13 Dec ? 01:39:59 25° ESE 01:39:59 25° ESE 01:43:14 10° SSE visible
13 Dec ? 03:20:20 35° SW 03:20:20 35° SW 03:23:22 10° SW visible
13 Dec ? 11:19:58 10° E 11:22:49 15° NE 11:24:18 14° NNE visible
13 Dec ? 12:56:04 10° SSE 13:01:06 68° ENE 13:04:38 20° N visible
13 Dec ? 14:36:50 10° SW 14:40:45 22° W 14:44:41 10° NW visible
14 Dec ? 01:04:51 14° E 01:04:51 14° E 01:06:39 10° ESE visible
14 Dec ? 02:45:12 49° S 02:45:12 49° S 02:48:52 10° SSW visible
14 Dec ? 04:25:32 12° W 04:25:32 12° W 04:26:04 10° WSW visible
14 Dec ? 12:21:54 10° SE 12:26:35 38° ENE 12:29:27 21° N visible
14 Dec ? 14:00:58 10° SSW 14:05:44 40° W 14:09:47 14° NNW visible
15 Dec ? 02:10:03 39° SE 02:10:03 39° SE 02:13:50 10° S visible
15 Dec ? 03:50:23 23° WSW 03:50:23 23° WSW 03:52:34 10° SW visible
15 Dec ? 11:48:16 10° ESE 11:52:12 23° NE 11:54:15 18° NNE visible
15 Dec ? 13:25:49 10° S 13:30:54 73° WSW 13:34:35 19° NNW visible
15 Dec ? 15:08:42 10° WSW 15:10:58 13° W 15:13:15 10° WNW visible
16 Dec ? 01:34:54 24° ESE 01:34:54 24° ESE 01:38:09 10° SSE visible
16 Dec ? 03:15:14 39° SW 03:15:14 39° SW 03:18:31 10° SSW visible
16 Dec ? 11:15:22 10° E 11:17:58 14° NE 11:19:03 13° NE visible
16 Dec ? 12:51:12 10° SSE 12:56:13 63° ENE 12:59:24 23° N visible
16 Dec ? 14:31:43 10° SW 14:35:48 24° W 14:39:44 11° NW visible
17 Dec ? 00:59:44 13° E 00:59:44 13° E 01:01:20 10° ESE visible
17 Dec ? 02:40:05 52° S 02:40:05 52° S 02:43:57 10° S visible
17 Dec ? 04:20:25 14° W 04:20:25 14° W 04:21:22 10° WSW visible
17 Dec ? 12:17:06 10° SE 12:21:42 36° ENE 12:24:13 22° NNE visible
17 Dec ? 13:55:58 10° S 14:00:48 43° W 14:04:33 16° NNW visible
